C/2017 U7 ( PanSTARRS )

Japanese version
Home page
Updated on July 8, 2020

---------------------------------------------------------------------

* Profile

Discovery Date October 29, 2017
Magnitude 20.1 mag
Discoverer Pan-STARRS 1 telescope (Haleakala)

* Pictures

* Orbital Elements

Epoch 2019 Aug. 25.0 TT = JDT 2458720.5
T 2019 Sept. 11.28193 TT                                Rudenko
q   6.4172660            (2000.0)            P               Q
z  -0.0001183      Peri.  326.03230     +0.53147963     -0.59460867
 +/-0.0000005      Node   276.23237     -0.57730917     -0.77545533
e   1.0007589      Incl.  142.63532     -0.61987380     +0.21239012
From 426 observations 2017 Aug. 18-2020 Mar. 17, mean residual 0".4.

* Finding Charts

* Magnitudes Graph

        m1 = -8.5 + 5 log d + 25 log r(t - 150)

---------------------------------------------------------------------

The orbital elements are published on M.P.E.C. 2020-G65.
The charts are made with StellaNavigator Ver.10 (AstroArts).
The magnitudes graphs are made with Comet for Windows.

---------------------------------------------------------------------

Copyright(C) Seiichi Yoshida (comet@aerith.net). All rights reserved.